This is the latest recevied weather packets stored in our database for station/object VE1DX. If no packets are shown the sender has not sent any weather packets the latest 10 day(s).
| Time | Temp. | Humidity | Pressure | Rain* | Wind** | Luminosity | Snow |
|---|---|---|---|---|---|---|---|
| 1777750217 | 17.78° C | 31% | 1012.9 hPa | 0 mm | - | - | - |
| 1777749617 | 16.67° C | 33% | 1012.5 hPa | 0 mm | - | - | - |
| 1777749317 | 16.67° C | 34% | 1012.5 hPa | 0 mm | - | - | - |
| 1777749017 | 16.67° C | 32% | 1012.4 hPa | 0 mm | - | - | - |
| 1777748718 | 16.67° C | 32% | 1012.4 hPa | 0 mm | - | - | - |
| 1777748417 | 16.67° C | 31% | 1012.5 hPa | 0 mm | - | - | - |
| 1777748117 | 16.67° C | 34% | 1012.5 hPa | 0 mm | - | - | - |
| 1777747817 | 16.67° C | 32% | 1012.5 hPa | 0 mm | - | - | - |
| 1777747517 | 16.67° C | 32% | 1012.7 hPa | 0 mm | - | - | - |
| 1777747217 | 16.67° C | 32% | 1012.6 hPa | 0 mm | - | - | - |
| 1777746917 | 16.67° C | 33% | 1012.7 hPa | 0 mm | - | - | - |
| 1777746617 | 16.67° C | 33% | 1012.7 hPa | 0 mm | - | - | - |
| 1777746317 | 16.67° C | 35% | 1012.8 hPa | 0 mm | - | - | - |
| 1777746017 | 16.67° C | 38% | 1012.9 hPa | 0 mm | - | - | - |
| 1777745717 | 16.11° C | 36% | 1012.9 hPa | 0 mm | - | - | - |
| 1777745417 | 16.11° C | 36% | 1013 hPa | 0 mm | - | - | - |
| 1777745118 | 16.67° C | 35% | 1013 hPa | 0 mm | - | - | - |
| 1777744817 | 16.67° C | 33% | 1013.1 hPa | 0 mm | - | - | - |
| 1777744518 | 16.11° C | 34% | 1013.2 hPa | 0 mm | - | - | - |
| 1777744217 | 16.11° C | 35% | 1013.2 hPa | 0 mm | - | - | - |
| 1777743917 | 16.11° C | 33% | 1013.3 hPa | 0 mm | - | - | - |
| 1777743617 | 16.11° C | 33% | 1013.2 hPa | 0 mm | - | - | - |
| 1777743317 | 16.11° C | 34% | 1013.3 hPa | 0 mm | - | - | - |
| 1777743017 | 15.56° C | 33% | 1013.3 hPa | 0 mm | - | - | - |
| 1777742718 | 15.56° C | 34% | 1013.2 hPa | 0 mm | - | - | - |
* Rain latest hour (hover to see other rain measurements)
** Current wind speed in m/s (hover to see current wind gust speed)